Regional Weather Roundup
Issued by NWS Jackson, KY

Home | Current Version | Previous Version | Graphics & Text | Print | Product List | Glossary On
Versions: 1 2 3 4 5 6 7 8 9 10 11 12 13 14 15 16 17 18 19 20 21 22 23 24 25 26 27 28 29 30 31 32 33 34 35 36 37 38 39 40 41 42 43 44 45 46 47 48 49 50
000
ASUS43 KJKL 010810
RWRJKL

EAST KENTUCKY HOURLY WEATHER ROUNDUP
NATIONAL WEATHER SERVICE JACKSON KY
400 AM EDT FRI AUG 01 2014

NOTE: "FAIR" INDICATES FEW OR NO CLOUDS BELOW 12,000 FEET WITH
NO SIGNIFICANT WEATHER AND/OR OBSTRUCTIONS TO VISIBILITY.

* THESE REPORTS ARE NOT UNDER NWS QUALITY CONTROL AND MAY NOT
  REPORT WEATHER SUCH AS PRECIPITATION AND FOG.

KYZ079-080-083-085-087-088-110-112-115-119-120-010900
...EASTERN KENTUCKY...

CITY           SKY/WX    TMP DP  RH WIND       PRES   REMARKS
JACKSON        MOCLDY    66  59  78 CALM      30.10F
LONDON         PTCLDY    65  60  84 CALM      30.09F
SOMERSET*      PTCLDY    61  61 100 CALM      30.09S
MONTICELLO*    MOCLDY    60  60 100 CALM      30.10S FOG
WILLIAMSBURG*    N/A     63  63 100 CALM      30.09F
MIDDLESBORO*   PTCLDY    61  61  99 CALM      30.11S
HARLAN APT*    CLOUDY    61  61 100 MISG      30.12S VSB<1/4
HAZARD APT*    CLOUDY    63  63 100 CALM      30.10
BLACK MTN*       N/A     57  54  88 NW1         N/A
PIKEVILLE APT* PTCLDY    66  61  82 CALM      30.10F
BIG SANDY*     CLOUDY    63  62  97 E3        30.10F
MOREHEAD APT*    N/A     63  59  88 CALM      30.11F
$$

KYZ035-036-041-042-044-050-067-078-099-010900
...CENTRAL KENTUCKY...

CITY           SKY/WX    TMP DP  RH WIND       PRES   REMARKS
MT STERLING*   PTCLDY    59  59 100 CALM      30.10F
FLEMING/MASON* CLEAR     61  59  94 CALM      30.10S
DANVILLE*      CLEAR     57  55  94 CALM      30.10S
RICHMOND*      PTCLDY    59  57  94 CALM      30.08F
LEXINGTON      CLEAR     62  58  86 CALM      30.09F
FRANKFORT      CLEAR     60  58  92 CALM      30.08S
$$

KYZ091>093-OHZ055-061-077-WVZ005-015-034-035-042-010900
...SOUTHERN OHIO/WEST VIRGINIA...

CITY           SKY/WX    TMP DP  RH WIND       PRES   REMARKS
COVINGTON      CLEAR     64  59  83 CALM      30.09S
COLUMBUS       CLEAR     66  60  81 CALM      30.09F
DAYTON         CLEAR     64  59  83 CALM      30.10F
WILMINGTON     PTCLDY    66  61  84 E5        30.09F
HUNTINGTON     MOCLDY    61  61 100 N3        30.08S FOG
CHARLESTON     MOCLDY    62  62 100 CALM      30.10F
PINEVILLE*     CLOUDY    63  63 100 MISG      30.19F
BECKLEY        MOCLDY    63  57  81 SE6       30.18S
BLUEFIELD      CLOUDY    64  55  72 SE5       30.20S
$$

VAZ002-007-008-TNZ017-027-036-066-071-010900
...SOUTHWEST VIRGINIA/EAST TENNESSEE...

CITY           SKY/WX    TMP DP  RH WIND       PRES   REMARKS
WISE*          PTCLDY    63  61  94 CALM      30.16F
JONESVILLE*      N/A     61  61 100 CALM      30.12F
ABINGDON*      CLOUDY    67  60  76 E6        30.15R
BRISTOL        MOCLDY    66  60  81 CALM      30.11S
OAK RIDGE      MOCLDY    66  64  93 CALM      30.09S
CROSSVILLE     PTCLDY    64  60  87 CALM      30.12R FOG
NASHVILLE      PTCLDY    65  61  87 CALM      30.06S
$$

...KEY TO REMARKS...
VSB - VISIBILITY IN MILES
WCI - WIND CHILL INDEX
HX  - HEAT INDEX

$$



USA.gov is the U.S. government's official web portal to all federal, state and local government web resources and services.